sat.trackr.live / text

‹ back to catalog

STARLINK-2550

NORAD 48293 · 2021-036T

PAYLOAD ACTIVE UNKNOWN

§ Identity

Operator
Country
US
Launch date
2021-04-29
Launch site
AFETR
Launch vehicle
Mass (kg)
RCS (m²)

Purposes: comms

External: N2YO · Heavens-Above · Gunter

§ Orbital elements

Epoch: 2026-09-19T13:15:34.790400Z

Period
94.01 min
Inclination
53.1608°
Eccentricity
0.0001361
Mean motion
15.31705361 rev/d
Perigee alt
469.8 km
Apogee alt
471.7 km
Semi-major
6,848.9 km
B*
1.7880e-5
RAAN
253.2063°
Arg perigee
91.6247°
Mean anomaly
268.4911°
Rev number
29,811

§ Raw data

STARLINK-25501 48293U 21036T   26262.55248600  .00000190  00000+0  17880-4 0  99932 48293  53.1608 253.2063 0001361  91.6247 268.4911 15.31705361298116

JSON: /api/v1/satellites/48293 · /tle

For live sub-satellite position, see the globe view (requires WebGL).

§ Visibility from observer

Set your observer location to see the next 7 days of passes ≥ 10°. The values pass through the URL so the page stays shareable.

No JS? Fill the form by hand. The geolocation button needs JavaScript.